Time,TemperatureF,DewpointF,PressureIn,WindDirection,WindDirectionDegrees,WindSpeedMPH,WindSpeedGustMPH,Humidity,HourlyPrecipIn,Conditions,Clouds,dailyrainin,SoftwareType,DateUTC
2013-01-25 00:03:00,21.0,1.0,-100.00,NW,305,6.0,-999.0,41,-99.99,,,-99.99,,2013-01-25 05:03:00,
2013-01-25 00:12:00,21.0,0.0,-100.00,NW,306,7.0,-999.0,40,-99.99,,,-99.99,,2013-01-25 05:12:00,
2013-01-25 00:22:00,21.0,0.0,-100.00,WNW,291,5.0,-999.0,40,-99.99,,,-99.99,,2013-01-25 05:22:00,
2013-01-25 00:32:00,21.0,0.0,-100.00,WNW,291,5.0,-999.0,40,-99.99,,,-99.99,,2013-01-25 05:32:00,
2013-01-25 00:43:00,20.0,0.0,-100.00,WNW,301,6.0,-999.0,39,-99.99,,,-99.99,,2013-01-25 05:43:00,
2013-01-25 00:52:00,20.0,0.0,-100.00,NW,308,5.0,-999.0,40,-99.99,,,-99.99,,2013-01-25 05:52:00,
2013-01-25 01:02:00,20.0,0.0,-100.00,NW,313,5.0,-999.0,40,-99.99,,,-99.99,,2013-01-25 06:02:00,
2013-01-25 01:12:00,20.0,0.0,-100.00,NW,313,5.0,-999.0,40,-99.99,,,-99.99,,2013-01-25 06:12:00,
2013-01-25 01:21:00,20.0,0.0,-100.00,NW,312,5.0,-999.0,41,-99.99,,,-99.99,,2013-01-25 06:21:00,
2013-01-25 01:32:00,20.0,-1.0,-100.00,NW,308,4.0,-999.0,40,-99.99,,,-99.99,,2013-01-25 06:32:00,
2013-01-25 01:42:00,20.0,-1.0,-100.00,NW,308,4.0,-999.0,40,-99.99,,,-99.99,,2013-01-25 06:42:00,
2013-01-25 01:52:00,19.0,-2.0,-100.00,NW,311,7.0,-999.0,38,-99.99,,,-99.99,,2013-01-25 06:52:00,
2013-01-25 02:02:00,19.0,-2.0,-100.00,NW,311,7.0,-999.0,38,-99.99,,,-99.99,,2013-01-25 07:02:00,
2013-01-25 02:11:00,19.0,-2.0,-100.00,NW,306,6.0,-999.0,38,-99.99,,,-99.99,,2013-01-25 07:11:00,
2013-01-25 02:22:00,19.0,-3.0,-100.00,NW,307,7.0,-999.0,38,-99.99,,,-99.99,,2013-01-25 07:22:00,
2013-01-25 02:32:00,19.0,-2.0,-100.00,NW,310,7.0,-999.0,38,-99.99,,,-99.99,,2013-01-25 07:32:00,
2013-01-25 02:42:00,19.0,-2.0,-100.00,NW,310,7.0,-999.0,38,-99.99,,,-99.99,,2013-01-25 07:42:00,
2013-01-25 02:52:00,19.0,-2.0,-100.00,NW,311,6.0,-999.0,38,-99.99,,,-99.99,,2013-01-25 07:52:00,
2013-01-25 03:02:00,19.0,-3.0,-100.00,NW,317,6.0,-999.0,38,-99.99,,,-99.99,,2013-01-25 08:02:00,
2013-01-25 03:11:00,19.0,-3.0,-100.00,NW,317,6.0,-999.0,38,-99.99,,,-99.99,,2013-01-25 08:11:00,
2013-01-25 03:21:00,19.0,-3.0,-100.00,NNW,327,7.0,-999.0,37,-99.99,,,-99.99,,2013-01-25 08:21:00,
2013-01-25 03:32:00,19.0,-3.0,-100.00,NW,321,7.0,-999.0,37,-99.99,,,-99.99,,2013-01-25 08:32:00,
2013-01-25 03:41:00,19.0,-3.0,-100.00,NW,321,7.0,-999.0,37,-99.99,,,-99.99,,2013-01-25 08:41:00,
2013-01-25 03:52:00,19.0,-3.0,-100.00,NNW,332,8.0,-999.0,37,-99.99,,,-99.99,,2013-01-25 08:52:00,
2013-01-25 04:02:00,19.0,-3.0,-100.00,NNW,335,7.0,-999.0,38,-99.99,,,-99.99,,2013-01-25 09:02:00,
2013-01-25 04:11:00,19.0,-3.0,-100.00,NNW,335,7.0,-999.0,38,-99.99,,,-99.99,,2013-01-25 09:11:00,
2013-01-25 04:21:00,19.0,-2.0,-100.00,NNW,335,6.0,-999.0,39,-99.99,,,-99.99,,2013-01-25 09:21:00,
2013-01-25 04:32:00,18.0,-3.0,-100.00,NW,323,7.0,-999.0,38,-99.99,,,-99.99,,2013-01-25 09:32:00,
2013-01-25 04:42:00,18.0,-3.0,-100.00,NW,323,7.0,-999.0,38,-99.99,,,-99.99,,2013-01-25 09:42:00,
2013-01-25 04:52:00,19.0,-2.0,-100.00,NW,318,5.0,-999.0,39,-99.99,,,-99.99,,2013-01-25 09:52:00,
2013-01-25 05:02:00,18.0,-3.0,-100.00,NW,323,7.0,-999.0,38,-99.99,,,-99.99,,2013-01-25 10:02:00,
2013-01-25 05:12:00,18.0,-3.0,-100.00,NW,323,7.0,-999.0,38,-99.99,,,-99.99,,2013-01-25 10:12:00,
2013-01-25 05:21:00,18.0,-3.0,-100.00,NW,324,8.0,-999.0,39,-99.99,,,-99.99,,2013-01-25 10:21:00,
2013-01-25 05:32:00,18.0,-2.0,-100.00,NW,318,6.0,-999.0,39,-99.99,,,-99.99,,2013-01-25 10:32:00,
2013-01-25 05:42:00,18.0,-2.0,-100.00,NW,318,6.0,-999.0,39,-99.99,,,-99.99,,2013-01-25 10:42:00,
2013-01-25 05:52:00,18.0,-2.0,-100.00,NW,314,6.0,-999.0,40,-99.99,,,-99.99,,2013-01-25 10:52:00,
2013-01-25 06:03:00,18.0,-2.0,-100.00,NW,314,5.0,-999.0,40,-99.99,,,-99.99,,2013-01-25 11:03:00,
2013-01-25 06:11:00,18.0,-2.0,-100.00,NW,314,5.0,-999.0,40,-99.99,,,-99.99,,2013-01-25 11:11:00,
2013-01-25 06:22:00,18.0,-2.0,-100.00,NW,321,5.0,-999.0,40,-99.99,,,-99.99,,2013-01-25 11:22:00,
2013-01-25 06:33:00,18.0,-1.0,-100.00,NW,308,4.0,-999.0,41,-99.99,,,-99.99,,2013-01-25 11:33:00,
2013-01-25 06:42:00,18.0,-1.0,-100.00,NW,308,4.0,-999.0,41,-99.99,,,-99.99,,2013-01-25 11:42:00,
2013-01-25 06:52:00,18.0,-2.0,-100.00,NW,309,4.0,-999.0,41,-99.99,,,-99.99,,2013-01-25 11:52:00,
2013-01-25 07:02:00,18.0,-1.0,-100.00,NNW,338,3.0,-999.0,41,-99.99,,,-99.99,,2013-01-25 12:02:00,
2013-01-25 07:12:00,18.0,-1.0,-100.00,NNW,338,3.0,-999.0,41,-99.99,,,-99.99,,2013-01-25 12:12:00,
2013-01-25 07:22:00,19.0,-1.0,-100.00,NW,321,3.0,-999.0,40,-99.99,,,-99.99,,2013-01-25 12:22:00,
2013-01-25 07:32:00,19.0,-2.0,-100.00,NNW,342,3.0,-999.0,40,-99.99,,,-99.99,,2013-01-25 12:32:00,
2013-01-25 07:42:00,19.0,-2.0,-100.00,NNW,342,3.0,-999.0,40,-99.99,,,-99.99,,2013-01-25 12:42:00,
2013-01-25 07:53:00,19.0,-2.0,-100.00,NW,317,4.0,-999.0,40,-99.99,,,-99.99,,2013-01-25 12:53:00,
2013-01-25 08:03:00,18.0,-1.0,-100.00,WNW,288,3.0,-999.0,41,-99.99,,,-99.99,,2013-01-25 13:03:00,
2013-01-25 08:12:00,18.0,-1.0,-100.00,WNW,288,3.0,-999.0,41,-99.99,,,-99.99,,2013-01-25 13:12:00,
2013-01-25 08:22:00,19.0,-1.0,-100.00,NW,307,3.0,-999.0,40,-99.99,,,-99.99,,2013-01-25 13:22:00,
2013-01-25 08:32:00,19.0,-2.0,-100.00,NW,309,4.0,-999.0,40,-99.99,,,-99.99,,2013-01-25 13:32:00,
2013-01-25 08:42:00,19.0,-2.0,-100.00,NW,309,4.0,-999.0,40,-99.99,,,-99.99,,2013-01-25 13:42:00,
2013-01-25 08:53:00,19.0,-2.0,-100.00,NW,318,4.0,-999.0,39,-99.99,,,-99.99,,2013-01-25 13:53:00,
2013-01-25 09:03:00,19.0,-3.0,-100.00,NW,313,3.0,-999.0,38,-99.99,,,-99.99,,2013-01-25 14:03:00,
2013-01-25 09:12:00,19.0,-3.0,-100.00,NW,313,3.0,-999.0,38,-99.99,,,-99.99,,2013-01-25 14:12:00,
2013-01-25 09:23:00,20.0,-3.0,-100.00,WNW,295,2.0,-999.0,35,-99.99,,,-99.99,,2013-01-25 14:23:00,
2013-01-25 09:32:00,20.0,-4.0,-100.00,NNW,345,2.0,-999.0,34,-99.99,,,-99.99,,2013-01-25 14:32:00,
2013-01-25 09:42:00,20.0,-4.0,-100.00,NNW,345,2.0,-999.0,34,-99.99,,,-99.99,,2013-01-25 14:42:00,
2013-01-25 09:53:00,20.0,-4.0,-100.00,NE,47,3.0,-999.0,34,-99.99,,,-99.99,,2013-01-25 14:53:00,
2013-01-25 10:03:00,21.0,-4.0,-100.00,ESE,108,3.0,-999.0,32,-99.99,,,-99.99,,2013-01-25 15:03:00,
2013-01-25 10:12:00,21.0,-4.0,-100.00,ESE,108,3.0,-999.0,32,-99.99,,,-99.99,,2013-01-25 15:12:00,
2013-01-25 10:22:00,21.0,-3.0,-100.00,ESE,102,3.0,-999.0,33,-99.99,,,-99.99,,2013-01-25 15:22:00,
2013-01-25 10:32:00,21.0,-3.0,-100.00,ESE,102,3.0,-999.0,33,-99.99,,,-99.99,,2013-01-25 15:32:00,
2013-01-25 10:42:00,21.0,-4.0,-100.00,South,179,4.0,-999.0,32,-99.99,,,-99.99,,2013-01-25 15:42:00,
2013-01-25 10:53:00,22.0,-6.0,-100.00,SE,127,5.0,-999.0,29,-99.99,,,-99.99,,2013-01-25 15:53:00,
2013-01-25 11:03:00,22.0,-4.0,-100.00,ESE,119,5.0,-999.0,30,-99.99,,,-99.99,,2013-01-25 16:03:00,
2013-01-25 11:12:00,22.0,-4.0,-100.00,ESE,119,5.0,-999.0,30,-99.99,,,-99.99,,2013-01-25 16:12:00,
2013-01-25 11:23:00,22.0,-5.0,-100.00,South,191,6.0,-999.0,30,-99.99,,,-99.99,,2013-01-25 16:23:00,
2013-01-25 11:33:00,21.0,-5.0,-100.00,SSW,199,6.0,-999.0,31,-99.99,,,-99.99,,2013-01-25 16:33:00,
2013-01-25 11:43:00,21.0,-5.0,-100.00,SSW,199,6.0,-999.0,31,-99.99,,,-99.99,,2013-01-25 16:43:00,
2013-01-25 11:53:00,22.0,-3.0,-100.00,SSW,200,7.0,-999.0,32,-99.99,,,-99.99,,2013-01-25 16:53:00,
2013-01-25 12:03:00,21.0,-3.0,-100.00,SSW,196,8.0,-999.0,33,-99.99,,,-99.99,,2013-01-25 17:03:00,
2013-01-25 12:12:00,21.0,-3.0,-100.00,SSW,196,8.0,-999.0,33,-99.99,,,-99.99,,2013-01-25 17:12:00,
2013-01-25 12:22:00,22.0,-2.0,-100.00,South,183,6.0,-999.0,34,-99.99,,,-99.99,,2013-01-25 17:22:00,
2013-01-25 12:33:00,22.0,-2.0,-100.00,South,188,6.0,-999.0,34,-99.99,,,-99.99,,2013-01-25 17:33:00,
2013-01-25 12:43:00,22.0,-2.0,-100.00,South,188,6.0,-999.0,34,-99.99,,,-99.99,,2013-01-25 17:43:00,
2013-01-25 12:53:00,22.0,-2.0,-100.00,South,189,7.0,-999.0,35,-99.99,,,-99.99,,2013-01-25 17:53:00,
2013-01-25 13:03:00,22.0,-2.0,-100.00,SSW,194,7.0,-999.0,35,-99.99,,,-99.99,,2013-01-25 18:03:00,
2013-01-25 13:12:00,22.0,-2.0,-100.00,SSW,194,7.0,-999.0,35,-99.99,,,-99.99,,2013-01-25 18:12:00,
2013-01-25 13:23:00,22.0,-1.0,-100.00,South,174,7.0,-999.0,36,-99.99,,,-99.99,,2013-01-25 18:23:00,
2013-01-25 13:33:00,22.0,-2.0,-100.00,South,191,9.0,-999.0,35,-99.99,,,-99.99,,2013-01-25 18:33:00,
2013-01-25 13:42:00,22.0,-2.0,-100.00,South,191,9.0,-999.0,35,-99.99,,,-99.99,,2013-01-25 18:42:00,
2013-01-25 13:53:00,22.0,-1.0,-100.00,SSW,195,8.0,-999.0,35,-99.99,,,-99.99,,2013-01-25 18:53:00,
2013-01-25 14:03:00,23.0,0.0,-100.00,South,172,9.0,-999.0,36,-99.99,,,-99.99,,2013-01-25 19:03:00,
2013-01-25 14:12:00,23.0,0.0,-100.00,South,172,9.0,-999.0,36,-99.99,,,-99.99,,2013-01-25 19:12:00,
2013-01-25 14:22:00,22.0,0.0,-100.00,SSE,161,9.0,-999.0,36,-99.99,,,-99.99,,2013-01-25 19:22:00,
2013-01-25 14:32:00,22.0,0.0,-100.00,SSE,161,9.0,-999.0,36,-99.99,,,-99.99,,2013-01-25 19:32:00,
2013-01-25 14:42:00,23.0,0.0,-100.00,South,178,9.0,-999.0,36,-99.99,,,-99.99,,2013-01-25 19:42:00,
2013-01-25 14:53:00,21.0,6.0,-100.00,South,184,12.0,-999.0,51,-99.99,,,-99.99,,2013-01-25 19:53:00,
2013-01-25 15:03:00,20.0,10.0,-100.00,South,172,13.0,-999.0,62,-99.99,,,-99.99,,2013-01-25 20:03:00,
2013-01-25 15:12:00,20.0,10.0,-100.00,South,172,13.0,-999.0,62,-99.99,,,-99.99,,2013-01-25 20:12:00,
2013-01-25 15:23:00,20.0,13.0,-100.00,SSE,168,11.0,-999.0,74,-99.99,,,-99.99,,2013-01-25 20:23:00,
2013-01-25 15:32:00,20.0,14.0,-100.00,SSE,165,8.0,-999.0,75,-99.99,,,-99.99,,2013-01-25 20:32:00,
2013-01-25 15:42:00,20.0,14.0,-100.00,SSE,165,8.0,-999.0,75,-99.99,,,-99.99,,2013-01-25 20:42:00,
2013-01-25 15:53:00,21.0,13.0,-100.00,South,176,8.0,-999.0,70,-99.99,,,-99.99,,2013-01-25 20:53:00,
2013-01-25 16:02:00,21.0,11.0,-100.00,SSW,199,10.0,-999.0,65,-99.99,,,-99.99,,2013-01-25 21:02:00,
2013-01-25 16:12:00,21.0,11.0,-100.00,SSW,199,10.0,-999.0,65,-99.99,,,-99.99,,2013-01-25 21:12:00,
2013-01-25 16:23:00,21.0,12.0,-100.00,SSW,194,10.0,-999.0,67,-99.99,,,-99.99,,2013-01-25 21:23:00,
2013-01-25 16:33:00,21.0,12.0,-100.00,SSW,200,11.0,-999.0,68,-99.99,,,-99.99,,2013-01-25 21:33:00,
2013-01-25 16:42:00,21.0,12.0,-100.00,SSW,200,11.0,-999.0,68,-99.99,,,-99.99,,2013-01-25 21:42:00,
2013-01-25 16:52:00,20.0,12.0,-100.00,South,188,10.0,-999.0,69,-99.99,,,-99.99,,2013-01-25 21:52:00,
2013-01-25 17:03:00,20.0,13.0,-100.00,SSW,194,11.0,-999.0,74,-99.99,,,-99.99,,2013-01-25 22:03:00,
2013-01-25 17:12:00,20.0,13.0,-100.00,SSW,194,11.0,-999.0,74,-99.99,,,-99.99,,2013-01-25 22:12:00,
2013-01-25 17:22:00,20.0,14.0,-100.00,South,191,11.0,-999.0,77,-99.99,,,-99.99,,2013-01-25 22:22:00,
2013-01-25 17:33:00,20.0,15.0,-100.00,SSW,196,9.0,-999.0,79,-99.99,,,-99.99,,2013-01-25 22:33:00,
2013-01-25 17:42:00,20.0,15.0,-100.00,SSW,196,9.0,-999.0,79,-99.99,,,-99.99,,2013-01-25 22:42:00,
2013-01-25 17:53:00,20.0,15.0,-100.00,SSW,192,11.0,-999.0,80,-99.99,,,-99.99,,2013-01-25 22:53:00,
2013-01-25 18:02:00,20.0,15.0,-100.00,South,191,10.0,-999.0,81,-99.99,,,-99.99,,2013-01-25 23:02:00,
2013-01-25 18:12:00,20.0,15.0,-100.00,South,191,10.0,-999.0,81,-99.99,,,-99.99,,2013-01-25 23:12:00,
2013-01-25 18:22:00,20.0,15.0,-100.00,SSW,194,9.0,-999.0,82,-99.99,,,-99.99,,2013-01-25 23:22:00,
2013-01-25 18:32:00,20.0,16.0,-100.00,SSW,194,8.0,-999.0,83,-99.99,,,-99.99,,2013-01-25 23:32:00,
2013-01-25 18:42:00,20.0,16.0,-100.00,SSW,194,8.0,-999.0,83,-99.99,,,-99.99,,2013-01-25 23:42:00,
2013-01-25 18:53:00,20.0,16.0,-100.00,South,183,7.0,-999.0,82,-99.99,,,-99.99,,2013-01-25 23:53:00,
2013-01-25 19:02:00,20.0,15.0,-100.00,South,190,8.0,-999.0,80,-99.99,,,-99.99,,2013-01-26 00:02:00,
2013-01-25 19:12:00,20.0,15.0,-100.00,South,190,8.0,-999.0,80,-99.99,,,-99.99,,2013-01-26 00:12:00,
2013-01-25 19:22:00,20.0,15.0,-100.00,South,188,9.0,-999.0,79,-99.99,,,-99.99,,2013-01-26 00:22:00,
2013-01-25 19:32:00,20.0,15.0,-100.00,South,190,9.0,-999.0,79,-99.99,,,-99.99,,2013-01-26 00:32:00,
2013-01-25 19:42:00,20.0,15.0,-100.00,South,190,9.0,-999.0,79,-99.99,,,-99.99,,2013-01-26 00:42:00,
2013-01-25 19:53:00,20.0,15.0,-100.00,South,188,8.0,-999.0,80,-99.99,,,-99.99,,2013-01-26 00:53:00,
2013-01-25 20:02:00,21.0,16.0,-100.00,South,170,7.0,-999.0,80,-99.99,,,-99.99,,2013-01-26 01:02:00,
2013-01-25 20:11:00,21.0,16.0,-100.00,South,170,7.0,-999.0,80,-99.99,,,-99.99,,2013-01-26 01:11:00,
2013-01-25 20:22:00,21.0,16.0,-100.00,South,177,7.0,-999.0,80,-99.99,,,-99.99,,2013-01-26 01:22:00,
2013-01-25 20:32:00,21.0,16.0,-100.00,South,183,7.0,-999.0,80,-99.99,,,-99.99,,2013-01-26 01:32:00,
2013-01-25 20:42:00,21.0,16.0,-100.00,South,183,7.0,-999.0,80,-99.99,,,-99.99,,2013-01-26 01:42:00,
2013-01-25 20:52:00,21.0,16.0,-100.00,South,182,6.0,-999.0,81,-99.99,,,-99.99,,2013-01-26 01:52:00,
2013-01-25 21:02:00,21.0,16.0,-100.00,SSW,206,5.0,-999.0,80,-99.99,,,-99.99,,2013-01-26 02:02:00,
2013-01-25 21:11:00,21.0,16.0,-100.00,SSW,206,5.0,-999.0,80,-99.99,,,-99.99,,2013-01-26 02:11:00,
2013-01-25 21:22:00,21.0,16.0,-100.00,SSW,202,5.0,-999.0,79,-99.99,,,-99.99,,2013-01-26 02:22:00,
2013-01-25 21:32:00,21.0,16.0,-100.00,SW,221,7.0,-999.0,79,-99.99,,,-99.99,,2013-01-26 02:32:00,
2013-01-25 21:42:00,21.0,16.0,-100.00,SW,221,7.0,-999.0,79,-99.99,,,-99.99,,2013-01-26 02:42:00,
2013-01-25 21:52:00,21.0,16.0,-100.00,SW,221,6.0,-999.0,79,-99.99,,,-99.99,,2013-01-26 02:52:00,
2013-01-25 22:02:00,22.0,16.0,-100.00,SW,222,5.0,-999.0,78,-99.99,,,-99.99,,2013-01-26 03:02:00,
2013-01-25 22:11:00,22.0,16.0,-100.00,SW,222,5.0,-999.0,78,-99.99,,,-99.99,,2013-01-26 03:11:00,
2013-01-25 22:22:00,22.0,16.0,-100.00,SW,234,6.0,-999.0,78,-99.99,,,-99.99,,2013-01-26 03:22:00,
2013-01-25 22:32:00,22.0,16.0,-100.00,SW,229,6.0,-999.0,77,-99.99,,,-99.99,,2013-01-26 03:32:00,
2013-01-25 22:43:00,22.0,16.0,-100.00,SW,229,6.0,-999.0,77,-99.99,,,-99.99,,2013-01-26 03:43:00,
2013-01-25 22:52:00,22.0,16.0,-100.00,SW,230,6.0,-999.0,77,-99.99,,,-99.99,,2013-01-26 03:52:00,
2013-01-25 23:02:00,22.0,16.0,-100.00,WSW,245,5.0,-999.0,76,-99.99,,,-99.99,,2013-01-26 04:02:00,
2013-01-25 23:12:00,22.0,16.0,-100.00,WSW,245,5.0,-999.0,76,-99.99,,,-99.99,,2013-01-26 04:12:00,
2013-01-25 23:21:00,22.0,16.0,-100.00,West,262,5.0,-999.0,76,-99.99,,,-99.99,,2013-01-26 04:21:00,
2013-01-25 23:32:00,22.0,16.0,-100.00,West,260,6.0,-999.0,76,-99.99,,,-99.99,,2013-01-26 04:32:00,
2013-01-25 23:42:00,22.0,16.0,-100.00,West,260,6.0,-999.0,76,-99.99,,,-99.99,,2013-01-26 04:42:00,
2013-01-25 23:52:00,22.0,16.0,-100.00,West,267,7.0,-999.0,75,-99.99,,,-99.99,,2013-01-26 04:52:00,